This demonstration page uses our WeatherBlox Daily Observations layout. Learn more.

Left ArrowRight Arrow

Hourly Observations for August 2, 2016

Temp ( °F °C ) Dew Point ( °F °C ) Humidity (%) Winds ( mph kmh ) Pressure ( in mb ) Visibility ( mi km ) Precip ( " mm )
12:18 am 00:18 Mostly Cloudy 66 19 66 19 100 100 Calm 30.09 1019 0.5 0.80467 N/A
12:38 am 00:38 Clear 66 19 66 19 100 100 Calm 30.09 1019 7 11.26538 N/A
12:59 am 00:59 Clear 66 19 66 19 100 100 Calm 30.09 1019 4 6.43736 N/A
1:18 am 01:18 Mostly Cloudy 66 19 64 18 94 94 Calm 30.09 1019 1.25 2.011675 N/A
1:38 am 01:38 Mostly Cloudy 66 19 66 19 100 100 Calm 30.09 1019 1.5 2.41401 N/A
1:58 am 01:58 Mostly Cloudy 64 18 64 18 100 100 Calm 30.09 1019 0.5 0.80467 N/A
2:18 am 02:18 Mostly Cloudy 64 18 64 18 100 100 Calm 30.09 1019 0.25 0.402335 N/A
2:38 am 02:38 Mostly Cloudy 64 18 64 18 100 100 Calm 30.09 1019 0.75 1.207005 N/A
2:58 am 02:58 Mostly Cloudy 64 18 64 18 100 100 Calm 30.09 1019 0.25 0.402335 N/A
3:18 am 03:18 Mostly Cloudy 66 19 64 18 94 94 Calm 30.09 1019 0.25 0.402335 N/A
3:38 am 03:38 Mostly Cloudy 64 18 64 18 100 100 Calm 30.06 1018 0.25 0.402335 N/A
3:58 am 03:58 Mostly Cloudy 64 18 64 18 100 100 Calm 30.06 1018 5 8.0467 N/A
4:18 am 04:18 Cloudy 63 17 63 17 100 100 Calm 30.06 1018 0.25 0.402335 N/A
4:39 am 04:39 Mostly Cloudy 64 18 64 18 100 100 Calm 30.06 1018 0.5 0.80467 N/A
4:58 am 04:58 Cloudy 64 18 63 17 94 94 Calm 30.06 1018 0.25 0.402335 N/A
5:18 am 05:18 Mostly Cloudy 63 17 63 17 100 100 Calm 30.06 1018 1.25 2.011675 N/A
5:39 am 05:39 Cloudy 63 17 63 17 100 100 Calm 30.06 1018 0.25 0.402335 N/A
5:58 am 05:58 Cloudy 64 18 64 18 100 100 Calm 30.06 1018 0.5 0.80467 N/A
6:18 am 06:18 Cloudy 63 17 63 17 100 100 Calm 30.06 1018 5 8.0467 N/A
6:38 am 06:38 Cloudy 63 17 63 17 100 100 Calm 30.06 1018 0.25 0.402335 N/A
6:58 am 06:58 Cloudy 63 17 63 17 100 100 N 3 6 30.06 1018 5 8.0467 N/A
7:18 am 07:18 Cloudy 63 17 63 17 100 100 Calm 30.06 1018 5 8.0467 N/A
7:38 am 07:38 Cloudy 63 17 63 17 100 100 Calm 30.06 1018 0.25 0.402335 N/A
7:58 am 07:58 Mostly Cloudy 64 18 64 18 100 100 Calm 30.09 1019 0.5 0.80467 N/A
8:18 am 08:18 Sunny 68 20 66 19 94 94 Calm 30.09 1019 4 6.43736 N/A
8:38 am 08:38 Sunny 68 20 68 20 100 100 Calm 30.09 1019 7 11.26538 N/A
8:58 am 08:58 Sunny 72 22 68 20 88 88 Calm 30.06 1018 7 11.26538 N/A
9:18 am 09:18 Sunny 72 22 70 21 94 94 ENE 3 6 30.06 1018 5 8.0467 N/A
9:38 am 09:38 Sunny 73 23 70 21 89 89 Calm 30.06 1018 7 11.26538 N/A
9:58 am 09:58 Sunny 75 24 72 22 89 89 Calm 30.06 1018 7 11.26538 N/A
10:19 am 10:19 Sunny 75 24 72 22 89 89 Calm 30.06 1018 10 16.0934 N/A
10:38 am 10:38 Sunny 77 25 72 22 83 83 NE 3 6 30.06 1018 10 16.0934 N/A
10:58 am 10:58 Sunny 79 26 70 21 74 74 Calm 30.06 1018 10 16.0934 N/A
11:19 am 11:19 Sunny 79 26 72 22 79 79 Calm 30.06 1018 10 16.0934 N/A
11:38 am 11:38 Sunny 81 27 72 22 74 74 Calm 30.06 1018 10 16.0934 N/A
11:58 am 11:58 Sunny 81 27 72 22 74 74 Calm 30.09 1019 10 16.0934 N/A
12:18 pm 12:18 Sunny 82 28 72 22 70 70 E 3 6 30.06 1018 10 16.0934 N/A
12:38 pm 12:38 Partly Cloudy 84 29 72 22 66 66 E 3 6 30.09 1019 10 16.0934 N/A
12:58 pm 12:58 Partly Cloudy 84 29 70 21 62 62 E 3 6 30.09 1019 10 16.0934 N/A
1:19 pm 13:19 Partly Cloudy 84 29 72 22 66 66 S 3 6 30.09 1019 10 16.0934 N/A
1:38 pm 13:38 Sunny 84 29 70 21 62 62 E 3 6 30.09 1019 10 16.0934 N/A
1:58 pm 13:58 Sunny 84 29 68 20 58 58 Calm 30.09 1019 10 16.0934 N/A
2:18 pm 14:18 Sunny 84 29 68 20 58 58 Calm 30.06 1018 10 16.0934 N/A
2:38 pm 14:38 Partly Cloudy 86 30 68 20 55 55 Calm 30.06 1018 10 16.0934 N/A
2:59 pm 14:59 Partly Cloudy 84 29 70 21 62 62 N 5 7 30.06 1018 10 16.0934 N/A
3:18 pm 15:18 Sunny 86 30 68 20 55 55 E 3 6 30.06 1018 10 16.0934 N/A
3:38 pm 15:38 Sunny 86 30 70 21 59 59 Calm 30.06 1018 10 16.0934 N/A
3:59 pm 15:59 Sunny 86 30 68 20 55 55 Calm 30.06 1018 10 16.0934 N/A
4:18 pm 16:18 Sunny 86 30 68 20 55 55 Calm 30.03 1017 10 16.0934 N/A
4:38 pm 16:38 Sunny 86 30 68 20 55 55 Calm 30.03 1017 10 16.0934 N/A
4:58 pm 16:58 Partly Cloudy 86 30 68 20 55 55 NE 3 6 30.03 1017 10 16.0934 N/A
5:18 pm 17:18 Partly Cloudy 86 30 66 19 52 52 NNE 5 7 30.03 1017 10 16.0934 N/A
5:39 pm 17:39 Sunny 86 30 66 19 52 52 N 5 7 30.03 1017 10 16.0934 N/A
5:58 pm 17:58 Sunny 86 30 64 18 49 49 N 5 7 30.03 1017 10 16.0934 N/A
6:18 pm 18:18 Sunny 86 30 66 19 52 52 NNE 6 9 30.03 1017 10 16.0934 N/A
6:39 pm 18:39 Sunny 86 30 68 20 55 55 N 5 7 30.03 1017 10 16.0934 N/A
6:58 pm 18:58 Sunny 86 30 68 20 55 55 N 5 7 30.03 1017 10 16.0934 N/A
7:18 pm 19:18 Sunny 84 29 68 20 58 58 N 3 6 30 1016 10 16.0934 N/A
7:39 pm 19:39 Sunny 84 29 68 20 58 58 Calm 30 1016 10 16.0934 N/A
7:58 pm 19:58 Sunny 84 29 70 21 62 62 N 5 7 30 1016 10 16.0934 N/A
8:18 pm 20:18 Sunny 81 27 68 20 66 66 NNE 7 11 30 1016 10 16.0934 N/A
8:39 pm 20:39 Sunny 79 26 68 20 70 70 NNE 5 7 30 1016 10 16.0934 N/A
8:58 pm 20:58 Clear 75 24 70 21 83 83 Calm 30 1016 10 16.0934 N/A
9:18 pm 21:18 Clear 73 23 70 21 89 89 Calm 30.03 1017 10 16.0934 N/A
9:38 pm 21:38 Clear 73 23 68 20 83 83 Calm 30.03 1017 10 16.0934 N/A
9:58 pm 21:58 Clear 70 21 68 20 94 94 Calm 30.06 1018 10 16.0934 N/A
10:18 pm 22:18 Clear 70 21 68 20 94 94 Calm 30.06 1018 10 16.0934 N/A
10:38 pm 22:38 Clear 70 21 68 20 94 94 Calm 30.06 1018 10 16.0934 N/A
10:58 pm 22:58 Clear 70 21 68 20 94 94 Calm 30.06 1018 10 16.0934 N/A
11:18 pm 23:18 Clear 68 20 68 20 100 100 Calm 30.06 1018 10 16.0934 N/A
11:38 pm 23:38 Clear 68 20 68 20 100 100 Calm 30.06 1018 10 16.0934 N/A
11:58 pm 23:58 Clear 68 20 66 19 94 94 Calm 30.06 1018 10 16.0934 N/A

Powered by AerisWeather